Location: Kosice
(0.0000°N, 21.2500°E)
Time: 17:57:26
(UTC+01:00)

CCE 1 Rocket - Pass Details

Date: 24 January 2021
Orbit: 544 x 3982 km, 28.9° (Epoch: 01 March)

Event Time Altitude Azimuth Distance (km) Brightness Sun altitude
Rises 19:15:43 0° 302° (WNW) 4,073 8.3 -20.9°
Reaches altitude 10° 19:19:09 10° 303° (WNW) 2,678 7.3 -21.7°
Maximum altitude 19:24:57 80° 30° (NNE) 674 3.5 -23.0°
Enters shadow 19:25:23 71° 91° (E) 686 3.5 -23.1°
